Mattoon, IL

8:42 AM CDT on October 23, 2019 (GMT -0500)
Coles County Memorial

Weather History for KMTO - May, 2019

Change the Weather History Date:

Wednesday, May 8, 2019

  Actual Average Record
Temperature  
Mean Temperature 69 °F 61 °F  
Max Temperature 82 °F 71 °F 88 °F (1963)
Min Temperature 56 °F 51 °F 33 °F (1976)
Degree Days  
Heating Degree Days 0 5  
Month to date heating degree days 38 48  
Since 1 July heating degree days 5425 5310  
Cooling Degree Days 4 1  
Month to date cooling degree days 5 8  
Year to date cooling degree days 10 22  
Growing Degree Days 18 (Base 50)    
Moisture  
Dew Point 56 °F    
Average Humidity 66    
Maximum Humidity 86    
Minimum Humidity 45    
Precipitation  
Precipitation T in 0.15 in 2.08 in (1961)
Month to date precipitation 0.47 1.24  
Year to date precipitation 9.49 11.22  
Sea Level Pressure  
Sea Level Pressure 29.89 in    
Wind  
Wind Speed 12 mph (SE)    
Max Wind Speed 24 mph    
Max Gust Speed 35 mph    
Visibility 10 miles    
Events      
T = Trace of Precipitation, MM = Missing Value Source: NWS Daily Summary

Daily Weather History Graph

Daily Weather History Graph

Search for Another Location

Airport or City:

Astronomy

May. 08, 2019 Rise Set
Actual Time 5:46 AM CDT 7:53 PM CDT
Civil Twilight 5:16 AM CDT 8:23 PM CDT
Nautical Twilight 4:40 AM CDT 8:59 PM CDT
Astronomical Twilight 4:00 AM CDT 9:39 PM CDT
Moon 8:43 AM CDT (5/8) 11:53 PM CDT (5/8)
Length of Visible Light 15h 06m
Length of Day
14h 07m
Waxing Crescent, 16% of the Moon is Illuminated
May 8
Waxing Crescent
May 11
First Quarter
May 18
Full
May 26
Last Quarter
Jun 3
New

Hourly Weather History & Observations

Time (CDT) Temp. Heat Index Dew Point Humidity Pressure Visibility Wind Dir Wind Speed Gust Speed Precip Events Conditions
12:53 AM 57.9 °F - 53.1 °F 84% 30.06 in 10.0 mi ENE 11.5 mph - N/A   Clear
1:53 AM 57.0 °F - 52.0 °F 83% 30.05 in 10.0 mi ENE 10.4 mph - N/A   Clear
2:53 AM 57.0 °F - 52.0 °F 83% 30.04 in 10.0 mi East 5.8 mph - N/A   Partly Cloudy
3:53 AM 57.0 °F - 52.0 °F 83% 30.02 in 10.0 mi East 9.2 mph - N/A   Clear
4:53 AM 57.0 °F - 52.0 °F 83% 30.01 in 10.0 mi East 8.1 mph - N/A   Partly Cloudy
5:53 AM 55.9 °F - 52.0 °F 87% 30.01 in 10.0 mi Variable 6.9 mph - N/A   Mostly Cloudy
6:53 AM 57.0 °F - 52.0 °F 83% 30.01 in 10.0 mi East 6.9 mph - N/A   Clear
7:53 AM 60.1 °F - 53.1 °F 78% 29.99 in 10.0 mi ESE 10.4 mph - N/A   Clear
8:53 AM 63.0 °F - 55.0 °F 75% 29.99 in 10.0 mi ESE 13.8 mph - N/A   Clear
9:53 AM 66.9 °F - 55.9 °F 68% 29.96 in 10.0 mi ESE 15.0 mph - N/A   Clear
10:53 AM 73.0 °F - 59.0 °F 61% 29.94 in 10.0 mi SE 16.1 mph 24.2 mph N/A   Clear
11:53 AM 77.0 °F - 60.1 °F 56% 29.91 in 10.0 mi SSE 20.7 mph 31.1 mph N/A   Clear
12:53 PM 79.0 °F - 60.1 °F 52% 29.88 in 10.0 mi SSE 19.6 mph 34.5 mph N/A   Partly Cloudy
1:53 PM 80.1 °F 80.7 °F 59.0 °F 48% 29.86 in 10.0 mi SSE 15.0 mph 31.1 mph N/A   Partly Cloudy
2:53 PM 80.1 °F 80.4 °F 57.0 °F 45% 29.82 in 10.0 mi South 15.0 mph 29.9 mph N/A   Clear
3:53 PM 81.0 °F 81.0 °F 57.0 °F 44% 29.81 in 10.0 mi SSE 16.1 mph 32.2 mph N/A   Clear
4:53 PM 79.0 °F - 55.9 °F 45% 29.79 in 10.0 mi South 11.5 mph 26.5 mph N/A   Clear
5:53 PM 79.0 °F - 57.9 °F 48% 29.77 in 10.0 mi SSE 12.7 mph - N/A   Clear
6:53 PM 77.0 °F - 57.0 °F 50% 29.77 in 10.0 mi South 8.1 mph - N/A   Clear
7:53 PM 75.9 °F - 55.9 °F 50% 29.78 in 10.0 mi South 10.4 mph - N/A   Clear
8:53 PM 73.9 °F - 55.0 °F 52% 29.77 in 10.0 mi SSE 6.9 mph - N/A   Scattered Clouds
9:53 PM 73.0 °F - 57.0 °F 57% 29.75 in 10.0 mi SE 10.4 mph - N/A   Clear
10:53 PM 73.9 °F - 59.0 °F 59% 29.72 in 10.0 mi SSE 11.5 mph - N/A   Clear
11:53 PM 73.9 °F - 59.0 °F 59% 29.69 in 10.0 mi SSE 11.5 mph - N/A   Mostly Cloudy